Location: Texas Valley
(42.4862°N, 75.9730°W)
Time: 18:08:17
(UTC+00:00)

BlueWalker 3 - Visible Passes

Search period start: 08 June 2023 00:00
Search period end: 18 June 2023 00:00
Orbit: 494 x 513 km, 53.2° (Epoch: 08 June)

Date Brightness Start Highest point End Pass type
(mag) Time Alt. Az. Time Alt. Az. Time Alt. Az.
08 Jun 4.5 02:24:37 10° NW 02:27:23 18° N 02:30:09 10° ENE visible
08 Jun 2.7 04:02:52 10° NW 04:06:38 47° NNE 04:07:03 45° NE visible
08 Jun 4.7 05:41:42 10° WNW 05:41:42 10° WNW 05:41:42 10° WNW visible
09 Jun 4.4 02:04:11 10° NW 02:06:57 19° N 02:09:44 10° ENE visible
09 Jun 2.7 03:42:25 10° NW 03:46:11 48° NNE 03:46:53 42° ENE visible
09 Jun 4.6 05:21:17 10° WNW 05:21:32 11° WNW 05:21:32 11° WNW visible
10 Jun 4.4 01:43:44 10° NW 01:46:31 19° N 01:49:18 10° ENE visible
10 Jun 2.6 03:21:58 10° NW 03:25:44 49° NNE 03:26:45 38° ENE visible
10 Jun 4.5 05:00:51 10° WNW 05:01:25 13° W 05:01:25 13° W visible
11 Jun 4.3 01:23:16 10° NW 01:26:04 19° NNE 01:28:52 10° ENE visible
11 Jun 2.6 03:01:30 10° NW 03:05:17 50° NNE 03:06:41 32° E visible
11 Jun 4.3 04:40:24 10° WNW 04:41:20 15° W 04:41:20 15° W visible
12 Jun 2.5 02:41:02 10° NW 02:44:48 52° NNE 02:46:39 27° E visible
12 Jun 4.1 04:19:57 10° WNW 04:21:19 17° W 04:21:19 17° W visible
13 Jun 2.5 02:20:32 10° NW 02:24:19 53° NNE 02:26:39 21° ESE visible
13 Jun 3.9 03:59:30 10° WNW 04:01:19 20° WSW 04:01:19 20° WSW visible
14 Jun 2.4 02:00:02 10° NW 02:03:50 54° NNE 02:06:42 16° ESE visible
14 Jun 3.7 03:39:01 10° WNW 03:41:22 21° WSW 03:41:22 21° WSW visible
15 Jun 2.4 01:39:32 10° NW 01:43:19 55° NNE 01:46:47 12° ESE visible
15 Jun 3.6 03:18:32 10° W 03:21:28 22° SW 03:21:28 22° SW visible
16 Jun 2.4 01:19:00 10° NW 01:22:48 57° NNE 01:26:36 10° ESE visible
16 Jun 3.6 02:58:04 10° W 03:01:02 21° SW 03:01:36 21° SW visible
17 Jun 3.7 02:37:34 10° W 02:40:29 21° SW 02:41:46 18° SSW visible
